GW3856 Weather Reports


time (UTC)temp
F
wind
direction
speed
knots
gust
knots
rain 1hr
in
rain 24hr
in
rain mn
in
humidity
%
barometer
mb
20260509115038 35 0 0.0 0.0 0.00 0.00 0.00 85 1012.3
20260509114551 35 0 0.0 0.0 0.00 0.00 0.00 86 1012.3
20260509114129 35 0 0.0 0.0 0.00 0.00 0.00 88 1012.3
20260509113539 34 0 0.0 0.0 0.00 0.00 0.00 88 1012.2
20260509113054 33 0 0.0 0.0 0.00 0.00 0.00 89 1012.4
20260509112539 33 0 0.0 0.0 0.00 0.00 0.00 89 1012.3
20260509112039 33 0 0.0 0.0 0.00 0.00 0.00 90 1012.3
20260509111551 32 0 0.0 0.0 0.00 0.00 0.00 90 1012.2
20260509111039 31 0 0.0 0.0 0.00 0.00 0.00 90 1012.2
20260509110540 31 0 0.0 0.0 0.00 0.00 0.00 90 1012.2
20260509110047 30 0 0.0 0.0 0.00 0.00 0.00 90 1012.2
20260509105539 30 0 0.0 0.0 0.00 0.00 0.00 90 1012.2
20260509105039 30 0 0.0 0.0 0.00 0.00 0.00 90 1012.2
20260509104552 29 0 0.0 1.7 0.00 0.00 0.00 90 1012.2
20260509104039 29 0 0.0 1.7 0.00 0.00 0.00 90 1012.2
20260509103539 29 0 0.9 2.6 0.00 0.00 0.00 90 1012.1
20260509103053 29 126 0.9 2.6 0.00 0.00 0.00 90 1012.1
20260509102539 28 126 0.9 2.6 0.00 0.00 0.00 90 1012.0
20260509102040 28 0 0.9 2.6 0.00 0.00 0.00 90 1012.0
20260509101554 28 0 0.0 2.6 0.00 0.00 0.00 90 1012.0
20260509101039 28 0 0.0 0.0 0.00 0.00 0.00 90 1012.0
20260509100540 28 0 0.0 0.0 0.00 0.00 0.00 90 1011.8
20260509100053 29 0 0.0 0.0 0.00 0.00 0.00 90 1011.9
20260509095540 29 0 0.0 0.0 0.00 0.00 0.00 90 1011.8
20260509095039 29 0 0.0 0.0 0.00 0.00 0.00 90 1011.7
20260509094544 29 0 0.0 0.0 0.00 0.00 0.00 90 1011.6
20260509094040 29 0 0.0 0.0 0.00 0.00 0.00 90 1011.5
20260509093538 29 0 0.0 0.0 0.00 0.00 0.00 90 1011.5
20260509093056 29 0 0.0 0.9 0.00 0.00 0.00 90 1011.5
20260509092542 29 0 0.0 1.7 0.00 0.00 0.00 90 1011.5
20260509092040 29 132 0.0 1.7 0.00 0.00 0.00 90 1011.5
20260509091614 29 132 0.0 1.7 0.00 0.00 0.00 90 1011.5
20260509091039 29 132 0.0 1.7 0.00 0.00 0.00 90 1011.4
20260509090540 29 0 0.0 0.0 0.00 0.00 0.00 90 1011.4
20260509090051 29 0 0.0 0.0 0.00 0.00 0.00 90 1011.4
20260509085539 29 0 0.0 0.0 0.00 0.00 0.00 90 1011.5
20260509085042 29 0 0.0 0.9 0.00 0.00 0.00 89 1011.5
20260509084549 29 0 0.0 1.7 0.00 0.00 0.00 89 1011.4
20260509084039 29 0 0.0 1.7 0.00 0.00 0.00 89 1011.4
20260509083538 29 132 0.9 1.7 0.00 0.00 0.00 89 1011.4
20260509083053 29 132 0.0 1.7 0.00 0.00 0.00 89 1011.4
20260509082539 29 132 0.0 2.6 0.00 0.00 0.00 89 1011.4
20260509082040 29 132 0.0 2.6 0.00 0.00 0.00 89 1011.5
20260509081552 29 157 0.9 1.7 0.00 0.00 0.00 89 1011.4
20260509081039 29 157 0.0 1.7 0.00 0.00 0.00 89 1011.4
20260509080538 29 0 0.0 0.0 0.00 0.00 0.00 89 1011.4
20260509080105 29 0 0.0 0.0 0.00 0.00 0.00 89 1011.3
20260509075542 29 0 0.0 0.0 0.00 0.00 0.00 89 1011.4
20260509075042 29 0 0.0 0.0 0.00 0.00 0.00 89 1011.4
20260509074552 29 0 0.0 0.0 0.00 0.00 0.00 88 1011.4
20260509074040 29 0 0.0 0.0 0.00 0.00 0.00 88 1011.4
20260509073539 29 0 0.0 0.0 0.00 0.00 0.00 88 1011.5
20260509073115 29 0 0.0 0.0 0.00 0.00 0.00 88 1011.5
20260509072542 30 0 0.0 0.0 0.00 0.00 0.00 88 1011.5
20260509072039 30 0 0.0 0.0 0.00 0.00 0.00 88 1011.5
20260509071548 30 0 0.0 0.0 0.00 0.00 0.00 88 1011.5
20260509071039 30 0 0.0 0.0 0.00 0.00 0.00 87 1011.5
20260509070544 30 0 0.0 0.0 0.00 0.00 0.00 87 1011.6
20260509070054 30 0 0.0 0.0 0.00 0.00 0.00 87 1011.5
20260509065539 30 0 0.0 0.0 0.00 0.00 0.00 87 1011.6
20260509065040 30 0 0.0 0.9 0.00 0.00 0.00 87 1011.5
20260509064548 30 0 0.0 0.9 0.00 0.00 0.00 87 1011.5
20260509064044 31 0 0.0 0.9 0.00 0.00 0.00 87 1011.6
20260509063540 31 0 0.0 0.0 0.00 0.00 0.00 87 1011.6
20260509063047 31 0 0.0 0.0 0.00 0.00 0.00 86 1011.6
20260509062537 31 0 0.0 0.0 0.00 0.00 0.00 86 1011.6
20260509062040 31 0 0.0 0.9 0.00 0.00 0.00 86 1011.5
20260509061555 31 0 0.0 0.9 0.00 0.00 0.00 86 1011.6
20260509061040 31 0 0.0 1.7 0.00 0.00 0.00 85 1011.6
20260509060540 32 0 0.0 1.7 0.00 0.00 0.00 85 1011.6
20260509060052 32 159 0.0 1.7 0.00 0.00 0.00 84 1011.7
20260509055538 32 159 0.0 0.9 0.00 0.00 0.00 84 1011.7
20260509055043 32 0 0.0 0.9 0.00 0.00 0.00 84 1011.7
20260509054602 32 0 0.0 0.9 0.00 0.00 0.00 84 1011.6
20260509054039 32 0 0.0 0.0 0.00 0.00 0.00 84 1011.6
20260509053540 32 0 0.0 1.7 0.00 0.00 0.00 83 1011.5
20260509053051 32 0 0.0 1.7 0.00 0.00 0.00 83 1011.5
20260509052541 33 0 0.0 1.7 0.00 0.00 0.00 83 1011.4
20260509052039 33 0 0.0 1.7 0.00 0.00 0.00 83 1011.4
20260509051549 33 0 0.0 0.0 0.00 0.00 0.00 82 1011.4
20260509051043 33 0 0.0 0.0 0.00 0.00 0.00 82 1011.4
20260509050539 33 0 0.0 0.9 0.00 0.00 0.00 82 1011.3
20260509050056 33 0 0.0 0.9 0.00 0.00 0.00 82 1011.3
20260509045539 33 0 0.0 0.9 0.00 0.00 0.00 81 1011.3
20260509045039 33 159 0.0 1.7 0.00 0.00 0.00 81 1011.4
20260509044545 34 159 0.0 1.7 0.00 0.00 0.00 81 1011.3
20260509044038 34 159 0.0 1.7 0.00 0.00 0.00 82 1011.3
20260509043539 34 158 0.9 1.7 0.00 0.00 0.00 81 1011.2
20260509043050 34 158 0.9 1.7 0.00 0.00 0.00 81 1011.2
20260509042538 34 158 0.9 1.7 0.00 0.00 0.00 80 1011.3
20260509042040 34 158 0.0 1.7 0.00 0.00 0.00 80 1011.2
20260509041548 35 159 0.0 1.7 0.00 0.00 0.00 79 1011.3
20260509041041 35 0 0.9 2.6 0.00 0.00 0.00 79 1011.2
20260509040539 35 0 0.0 3.5 0.00 0.00 0.00 79 1011.2
20260509040059 35 138 0.9 3.5 0.00 0.00 0.00 79 1011.2
20260509035539 35 0 0.0 3.5 0.00 0.00 0.00 78 1011.1
20260509035040 36 163 0.0 3.5 0.00 0.00 0.00 78 1011.1
20260509034550 36 0 0.9 4.3 0.00 0.00 0.00 78 1011.0
20260509034039 36 163 0.9 4.3 0.00 0.00 0.00 79 1011.0
20260509033539 36 141 0.9 4.3 0.00 0.00 0.00 78 1011.0
20260509033052 36 140 0.9 3.5 0.00 0.00 0.00 78 1010.9
20260509032540 37 135 0.9 3.5 0.00 0.00 0.00 77 1010.9
20260509032045 37 271 0.9 2.6 0.00 0.00 0.00 77 1010.9
20260509031544 37 271 0.9 3.5 0.00 0.00 0.00 77 1010.8
20260509031038 38 174 0.9 5.2 0.00 0.00 0.00 76 1010.7
20260509030540 38 165 1.7 5.2 0.00 0.00 0.00 76 1010.5
20260509030050 38 169 1.7 4.3 0.00 0.00 0.00 75 1010.6
20260509025544 38 172 0.9 1.7 0.00 0.00 0.00 74 1010.5
20260509025044 39 0 0.0 2.6 0.00 0.00 0.00 73 1010.4
20260509024548 39 173 0.0 3.5 0.00 0.00 0.00 72 1010.5
20260509024039 39 173 0.9 5.2 0.00 0.00 0.00 72 1010.4
20260509023540 39 182 1.7 5.2 0.00 0.00 0.00 72 1010.4
20260509023046 39 162 1.7 5.2 0.00 0.00 0.00 72 1010.4
20260509022539 39 170 0.0 1.7 0.00 0.00 0.00 71 1010.4
20260509022039 40 172 0.0 2.6 0.00 0.00 0.00 70 1010.3
20260509021545 40 172 0.9 2.6 0.00 0.00 0.00 68 1010.3
20260509021039 41 173 0.9 2.6 0.00 0.00 0.00 67 1010.3
20260509020538 41 198 0.9 2.6 0.00 0.00 0.00 66 1010.3
20260509020048 42 198 0.9 3.5 0.00 0.00 0.00 65 1010.3
20260509015543 42 199 0.9 3.5 0.00 0.00 0.00 64 1010.2
20260509015040 42 198 0.9 4.3 0.00 0.00 0.00 64 1010.3
20260509014547 42 184 1.7 4.3 0.00 0.00 0.00 62 1010.2
20260509014041 42 153 1.7 3.5 0.00 0.00 0.00 62 1010.1
20260509013539 43 222 1.7 2.6 0.00 0.00 0.00 61 1010.0
20260509013051 43 222 1.7 2.6 0.00 0.00 0.00 58 1010.0
20260509012539 44 290 0.0 2.6 0.00 0.00 0.00 56 1009.9
20260509012039 44 290 0.9 1.7 0.00 0.00 0.00 53 1009.7
20260509011555 44 290 0.9 1.7 0.00 0.00 0.00 50 1009.7
20260509011039 45 290 0.0 1.7 0.00 0.00 0.00 49 1009.6
20260509010539 45 290 0.9 1.7 0.00 0.00 0.00 48 1009.6
20260509010046 46 290 0.0 1.7 0.00 0.00 0.00 49 1009.5
20260509005538 46 290 0.9 1.7 0.00 0.00 0.00 45 1009.4
20260509005037 46 290 0.0 0.9 0.00 0.00 0.00 46 1009.4
20260509004604 46 290 0.0 0.9 0.00 0.00 0.00 47 1009.3
20260509004039 46 0 0.0 0.9 0.00 0.00 0.00 47 1009.2
20260509003540 46 0 0.0 0.0 0.00 0.00 0.00 48 1009.2
20260509003048 46 0 0.0 0.0 0.00 0.00 0.00 45 1009.3
20260509002539 46 0 0.0 0.9 0.00 0.00 0.00 46 1009.2
20260509002039 46 0 0.0 1.7 0.00 0.00 0.00 46 1009.2
20260509001547 46 0 0.0 1.7 0.00 0.00 0.00 47 1009.1
20260509001040 46 290 0.0 1.7 0.00 0.00 0.00 48 1009.1
20260509000539 46 290 0.0 1.7 0.00 0.00 0.00 48 1009.1
20260509000047 47 290 0.9 1.7 0.00 0.00 0.00 47 1008.9
20260508235542 47 290 0.0 2.6 0.00 0.00 0.00 46 1009.0
20260508235041 47 290 0.0 2.6 0.00 0.00 0.00 48 1008.8
20260508234548 47 290 0.9 2.6 0.00 0.00 0.00 43 1008.7
20260508234039 47 0 0.0 2.6 0.00 0.00 0.00 43 1008.7
20260508233540 48 290 0.9 2.6 0.00 0.00 0.00 44 1008.8
20260508233050 48 290 0.0 2.6 0.00 0.00 0.00 45 1008.7
20260508232541 48 290 0.0 2.6 0.00 0.00 0.00 43 1008.8
20260508232039 48 290 0.9 2.6 0.00 0.00 0.00 43 1008.7
20260508231551 48 290 0.0 2.6 0.00 0.00 0.00 43 1008.7
20260508231040 48 290 0.9 2.6 0.00 0.00 0.00 43 1008.7
20260508230538 49 290 0.9 2.6 0.00 0.00 0.00 43 1008.7
20260508230049 49 290 0.9 2.6 0.00 0.00 0.00 43 1008.6
20260508225537 49 290 0.9 3.5 0.00 0.00 0.00 43 1008.7
20260508225039 49 304 0.9 3.5 0.00 0.00 0.00 43 1008.7
20260508224551 49 304 1.7 3.5 0.00 0.00 0.00 41 1008.7
20260508224039 49 12 1.7 3.5 0.00 0.00 0.00 43 1008.7
20260508223539 49 321 0.9 4.3 0.00 0.00 0.00 44 1008.7
20260508223048 49 321 1.7 4.3 0.00 0.00 0.00 42 1008.7
20260508222538 49 317 1.7 8.7 0.00 0.00 0.00 42 1008.6
20260508222039 49 291 3.5 8.7 0.00 0.00 0.00 41 1008.5
20260508221549 49 316 2.6 8.7 0.00 0.00 0.00 42 1008.5
20260508221041 49 313 3.5 8.7 0.00 0.00 0.00 42 1008.5
20260508220539 49 355 3.5 8.7 0.00 0.00 0.00 42 1008.6
20260508220056 49 341 3.5 9.6 0.00 0.00 0.00 41 1008.6
20260508215537 49 296 4.3 9.6 0.00 0.00 0.00 43 1008.5
20260508215039 49 336 2.6 8.7 0.00 0.00 0.00 43 1008.4
20260508214556 49 336 3.5 7.8 0.00 0.00 0.00 41 1008.5
20260508214038 49 297 2.6 8.7 0.00 0.00 0.00 41 1008.3
20260508213540 49 272 3.5 8.7 0.00 0.00 0.00 42 1008.4
20260508213050 50 311 3.5 8.7 0.00 0.00 0.00 43 1008.3
20260508212539 50 294 2.6 8.7 0.00 0.00 0.00 41 1008.3
20260508212038 50 328 2.6 6.1 0.00 0.00 0.00 41 1008.3
20260508211548 50 309 1.7 7.0 0.00 0.00 0.00 41 1008.3
20260508211039 50 325 3.5 10.4 0.00 0.00 0.00 42 1008.2
20260508210540 50 295 5.2 10.4 0.00 0.00 0.00 41 1008.1
20260508210041 50 254 5.2 10.4 0.00 0.00 0.00 41 1008.1
20260508205539 50 321 4.3 12.2 0.00 0.00 0.00 41 1008.2
20260508205039 50 344 6.1 12.2 0.00 0.00 0.00 39 1008.0
20260508204549 50 323 4.3 14.8 0.00 0.00 0.00 42 1008.1
20260508204042 50 316 7.8 14.8 0.00 0.00 0.00 39 1008.0
20260508203541 51 310 7.0 14.8 0.00 0.00 0.00 38 1008.0
20260508203056 51 294 3.5 13.0 0.00 0.00 0.00 40 1008.0
20260508202540 51 259 6.1 13.0 0.00 0.00 0.00 41 1007.9
20260508202039 50 276 4.3 11.3 0.00 0.00 0.00 41 1007.9
20260508201543 51 274 6.1 12.2 0.00 0.00 0.00 39 1007.9
20260508201042 51 252 6.1 12.2 0.00 0.00 0.00 40 1007.9
20260508200541 51 301 4.3 11.3 0.00 0.00 0.00 42 1007.9
20260508200043 51 288 6.1 11.3 0.00 0.00 0.00 41 1007.8
20260508195538 51 298 3.5 10.4 0.00 0.00 0.00 44 1007.9
20260508195039 51 300 4.3 10.4 0.00 0.00 0.00 42 1008.0
20260508194540 50 266 3.5 11.3 0.00 0.00 0.00 47 1008.0
20260508194039 50 268 4.3 11.3 0.00 0.00 0.00 43 1008.0
20260508193538 49 317 5.2 9.6 0.00 0.00 0.00 44 1008.0
20260508193103 49 312 1.7 8.7 0.00 0.00 0.00 46 1008.1
20260508192537 49 329 3.5 9.6 0.00 0.00 0.00 45 1008.2
20260508192040 49 349 5.2 9.6 0.00 0.00 0.00 46 1008.1
20260508191548 49 323 3.5 7.8 0.00 0.00 0.00 44 1008.0
20260508191039 49 327 2.6 9.6 0.00 0.00 0.00 44 1008.0
20260508190539 49 314 3.5 11.3 0.00 0.00 0.00 45 1008.1
20260508190045 49 308 6.1 11.3 0.00 0.00 0.00 44 1008.1
20260508185537 50 271 6.1 11.3 0.00 0.00 0.00 42 1008.1
20260508185039 50 293 4.3 12.2 0.00 0.00 0.00 45 1008.1
20260508184548 50 281 2.6 12.2 0.00 0.00 0.00 44 1008.1
20260508184039 49 313 5.2 13.9 0.00 0.00 0.00 44 1008.2
20260508183539 48 344 7.0 13.9 0.00 0.00 0.00 44 1008.3
20260508183040 48 279 3.5 13.0 0.00 0.00 0.00 46 1008.3
20260508182540 48 292 6.1 13.0 0.00 0.00 0.00 45 1008.2
20260508182039 48 294 7.8 13.0 0.00 0.00 0.00 43 1008.2
20260508181558 48 327 6.1 11.3 0.00 0.00 0.00 44 1008.2
20260508181039 48 269 3.5 11.3 0.00 0.00 0.00 43 1008.2
20260508180537 48 347 6.1 11.3 0.00 0.00 0.00 43 1008.2
20260508180049 48 351 3.5 11.3 0.00 0.00 0.00 45 1008.3
20260508175539 48 294 3.5 7.8 0.00 0.00 0.00 47 1008.3
20260508175039 47 288 3.5 11.3 0.00 0.00 0.00 49 1008.3
20260508174549 47 335 4.3 11.3 0.00 0.00 0.00 46 1008.4
20260508174039 48 331 4.3 11.3 0.00 0.00 0.00 46 1008.3
20260508173539 48 342 4.3 9.6 0.00 0.00 0.00 49 1008.3
20260508173048 47 334 5.2 9.6 0.00 0.00 0.00 48 1008.3
20260508172538 47 283 3.5 8.7 0.00 0.00 0.00 49 1008.4
20260508172040 46 320 4.3 13.0 0.00 0.00 0.00 50 1008.4
20260508171548 46 333 4.3 13.0 0.00 0.00 0.00 51 1008.3
20260508171039 45 312 7.0 13.0 0.00 0.00 0.00 49 1008.4
20260508170537 45 281 5.2 12.2 0.00 0.00 0.00 50 1008.3
20260508170050 45 304 4.3 9.6 0.00 0.00 0.00 48 1008.4
20260508165539 46 317 5.2 9.6 0.00 0.00 0.00 47 1008.3
20260508165039 46 325 3.5 11.3 0.00 0.00 0.00 49 1008.2
20260508164547 46 320 4.3 11.3 0.00 0.00 0.00 48 1008.3
20260508164039 46 275 2.6 7.8 0.00 0.00 0.00 49 1008.4
20260508163539 46 290 1.7 7.8 0.00 0.00 0.00 48 1008.4
20260508163050 46 257 4.3 9.6 0.00 0.00 0.00 50 1008.3
20260508162539 45 335 3.5 13.0 0.00 0.00 0.00 48 1008.3
20260508162039 46 314 6.1 13.0 0.00 0.00 0.00 47 1008.3
20260508161548 46 282 5.2 8.7 0.00 0.00 0.00 45 1008.4
20260508161043 46 291 3.5 13.0 0.00 0.00 0.00 46 1008.3
20260508160543 46 315 6.1 13.0 0.00 0.00 0.00 44 1008.3
20260508160109 47 304 7.8 13.0 0.00 0.00 0.00 44 1008.3
20260508155542 47 311 7.0 13.0 0.00 0.00 0.00 46 1008.3
20260508155037 46 281 5.2 10.4 0.00 0.00 0.00 48 1008.3
20260508154549 47 321 4.3 14.8 0.00 0.00 0.00 47 1008.3
20260508154039 47 302 7.0 14.8 0.00 0.00 0.00 47 1008.3
20260508153538 47 327 2.6 12.2 0.00 0.00 0.00 50 1008.3
20260508153051 46 232 6.1 12.2 0.00 0.00 0.00 52 1008.3
20260508152539 46 308 2.6 12.2 0.00 0.00 0.00 53 1008.3
20260508152041 46 306 7.0 12.2 0.00 0.00 0.00 54 1008.3
20260508151552 45 293 3.5 13.0 0.00 0.00 0.00 55 1008.3
20260508151039 45 296 7.0 17.4 0.00 0.00 0.00 53 1008.4
20260508150537 45 315 10.4 17.4 0.00 0.00 0.00 53 1008.4
20260508150051 44 321 7.8 17.4 0.00 0.00 0.00 53 1008.4
20260508145541 45 327 8.7 17.4 0.00 0.00 0.00 54 1008.3
20260508145038 45 288 5.2 13.9 0.00 0.00 0.00 53 1008.4
20260508144543 45 317 7.0 13.9 0.00 0.00 0.00 54 1008.5
20260508144039 46 336 7.8 17.4 0.00 0.00 0.00 56 1008.5
20260508143541 46 318 7.0 17.4 0.00 0.00 0.00 56 1008.4
20260508143055 45 311 7.0 12.2 0.00 0.00 0.00 58 1008.4
20260508142539 44 323 5.2 14.8 0.00 0.00 0.00 61 1008.5
20260508142039 43 17 6.1 14.8 0.00 0.00 0.00 61 1008.6
20260508141553 43 317 8.7 13.9 0.00 0.00 0.00 61 1008.5
20260508141039 43 9 6.1 15.6 0.00 0.00 0.00 61 1008.5
20260508140539 43 308 7.8 15.6 0.00 0.00 0.00 61 1008.3
20260508140046 44 327 7.8 15.6 0.00 0.00 0.00 59 1008.4
20260508135542 45 286 7.8 15.6 0.00 0.00 0.00 58 1008.3
20260508135040 47 269 7.8 13.0 0.00 0.00 0.00 58 1008.2
20260508134542 46 284 5.2 13.9 0.00 0.00 0.00 57 1008.2
20260508134039 45 306 7.0 14.8 0.00 0.00 0.00 59 1008.2
20260508133539 44 319 6.1 14.8 0.00 0.00 0.00 59 1008.1
20260508133056 45 346 8.7 14.8 0.00 0.00 0.00 58 1008.1
20260508132539 46 309 7.0 11.3 0.00 0.00 0.00 60 1008.0
20260508132039 45 346 5.2 10.4 0.00 0.00 0.00 64 1008.1
20260508131545 44 295 4.3 11.3 0.00 0.00 0.00 64 1008.1
20260508131039 44 286 4.3 11.3 0.00 0.00 0.00 64 1008.1
20260508130539 44 313 2.6 10.4 0.00 0.00 0.00 65 1008.0
20260508130053 44 5 5.2 10.4 0.00 0.00 0.00 64 1008.0
20260508125539 43 284 5.2 8.7 0.00 0.00 0.00 65 1007.9
20260508125039 43 340 4.3 8.7 0.00 0.00 0.00 65 1008.0
20260508124548 43 334 2.6 8.7 0.00 0.00 0.00 67 1008.0
20260508124039 44 339 4.3 8.7 0.00 0.00 0.00 66 1008.0
20260508123539 44 312 4.3 8.7 0.00 0.00 0.00 67 1008.0
20260508123050 44 327 4.3 7.8 0.00 0.00 0.00 68 1008.0
20260508122539 44 323 2.6 7.0 0.00 0.00 0.00 69 1008.0
20260508122039 43 338 2.6 7.0 0.00 0.00 0.00 69 1007.9
20260508121603 43 259 1.7 6.1 0.00 0.00 0.00 72 1007.8
20260508121041 43 137 1.7 3.5 0.00 0.00 0.00 70 1007.8
20260508120539 43 135 0.9 2.6 0.00 0.00 0.00 71 1007.8
20260508120054 42 136 0.0 0.9 0.00 0.00 0.00 75 1007.8
20260508115543 42 0 0.0 0.9 0.00 0.00 0.00 78 1007.8